Regional Weather Roundup
Issued by NWS Wakefield, VA

Home | Current Version | Previous Version | Graphics & Text | Print | Product List | Glossary On
Versions: 1 2 3 4 5 6 7 8 9 10 11 12 13 14 15 16 17 18 19 20 21 22 23 24 25 26 27 28
000
ASUS41 KAKQ 231415
RWRAKQ

REGIONAL WEATHER ROUNDUP
NATIONAL WEATHER SERVICE WAKEFIELD VA
1000 AM EDT SAT SEP 23 2017

Note: "fair" indicates few or no clouds below 12,000 feet with no
significant weather and/or obstructions to visibility. * = Denotes
station may not report precipitation (e.g., rain,snow,etc.),
thunder or fog.

VAZ042-051-052>054-056-231500-
NORTHERN VIRGINIA

CITY           SKY/WX    TMP DP  RH WIND       PRES   REMARKS
WASH NATIONAL  MOSUNNY   76  60  57 N5        30.10R
DULLES         MOSUNNY   73  57  57 NW6       30.11S
FORT BELVOIR   SUNNY     76  58  53 NW6       30.10R
QUANTICO       SUNNY     76  63  64 W3        30.11R
FREDERICKSBRG* SUNNY     73  60  63 N6        30.09S
STAFFORD*      SUNNY     74  62  66 N6        30.14R
WARRENTON      SUNNY     76  56  48 N6        30.11S
CULPEPER*      SUNNY     74  62  66 N6        30.12S
MANASSAS*      SUNNY     75  60  59 NE5       30.11S
LEESBURG*      PTSUNNY   73  63  68 N5        30.13R
WINCHESTER     PTSUNNY   64  59  82 CALM      30.15R
FRONT ROYAL*   MOSUNNY   68  61  77 MISG      30.14R
LURAY*         SUNNY     66  61  82 CALM      30.15F
$$

VAZ048-049-060>072-079>083-231500-
CENTRAL AND SOUTH CENTRAL VIRGINIA

CITY           SKY/WX    TMP DP  RH WIND       PRES   REMARKS
RICHMOND       MOSUNNY   75  63  66 NE8       30.08R
CHESTERFIELD*  NOT AVBL
PETERSBURG*    SUNNY     72  63  72 CALM      30.08S
HANOVER        SUNNY     73  62  68 CALM      30.10R
TAPPAHANNOCK*  SUNNY     76  62  62 N6        30.08S
QUINTON*       FAIR      73  64  75 N7        30.07R
CHARLOTTSVILLE SUNNY     73  62  68 N3        30.12R
GORDONSVILLE*  SUNNY     73  59  60 N10       30.11R
ORANGE*        SUNNY     70  59  68 CALM      30.12R
LOUISA*        SUNNY     73  61  64 N6        30.11S
BUMPASS*       FAIR      73  62  69 CALM      30.10S
FARMVILLE*     SUNNY     74  63  67 NE10      30.10R
CREWE*         FAIR      73  67  83 CALM      30.10R
FORT PICKETT*  FAIR      72  67  83 N5        30.10R
CHASE CITY*    FAIR      74  71  87 N3        30.10R
CLARKSVILLE*   FAIR      75  68  78 NW3       30.09R
SOUTH HILL*    SUNNY     74  69  85 NW5       30.14R
LAWRENCEVILLE* FAIR      73  67  82 NW5       30.08R
EMPORIA*       SUNNY     72  64  78 N5        30.08S
$$

VAZ088>098-231500-
SOUTHEAST VIRGINIA

CITY           SKY/WX    TMP DP  RH WIND       PRES   REMARKS
NORFOLK        SUNNY     77  69  76 N9        30.04S
VIRGINIA BEACH MOSUNNY   77  65  66 N5        30.03R
NORFOLK NAVAL  MOSUNNY   78  69  73 N12       30.06R
WEST POINT*    SUNNY     75  64  69 NE5       30.08R
SALUDA*        FAIR      75  66  73 N3        30.06S
NEWPORT NEWS   SUNNY     77  66  68 NE7       30.06R
LANGLEY AFB    MOSUNNY   76  68  75 N10       30.05R
FORT EUSTIS    SUNNY     80  65  60 NE3       30.03R
WILLIAMSBURG*  SUNNY     73  70  88 CALM      30.07R
HR EXEC AP*    FAIR      76  69  79 VRB3      30.05S
FRANKLIN*      SUNNY     72  64  78 NE6       30.07R
US460-WAKEFLD  SUNNY     75  67  76 N3        30.06R
$$

VAZ020-022-025-037-045-231500-
WEST CENTRAL AND SOUTHWEST VIRGINIA

CITY           SKY/WX    TMP DP  RH WIND       PRES   REMARKS
STAUNTON*      FOG       60  60 100 CALM      30.19R VSB 1
WAYNESBORO*    SUNNY     67  64  90 CALM      30.17R
HOT SPRINGS VA SUNNY     69  52  55 CALM      30.26S
LYNCHBURG      SUNNY     75  61  61 NE8       30.12R
DANVILLE       SUNNY     76  68  76 CALM      30.10R
SOUTH BOSTON*  FAIR      74  66  76 CALM      30.10R
MARTINSVILLE   SUNNY     74  65  73 CALM      30.15R
ROANOKE        SUNNY     74  63  68 N10       30.15R
BLACKSBURG     SUNNY     71  63  76 CALM      30.20S
DUBLIN*        SUNNY     69  67  93 CALM      30.19R
MARION*        SUNNY     73  63  71 E5        30.22R
HILLSVILLE*    SUNNY     66  62  86 CALM      30.18S
RICHLANDS*     FAIR      72  62  69 CALM      30.20R
WISE*          SUNNY     73  63  68 CALM      30.21R
ABINGDON*      SUNNY     75  65  72 E6        30.16R
$$

MDZ021>025-VAZ099-100-231500-
SOUTHERN MARYLAND AND THE DELMARVA PENINSULA

CITY           SKY/WX    TMP DP  RH WIND       PRES   REMARKS
PATUXENT RIVER MOSUNNY   77  59  53 N8        30.07R
BAY BRIDGE APT MOSUNNY   73  59  60 N5        30.08R
LEONARDTOWN    SUNNY     72  63  73 N3        30.09S
DOVER          SUNNY     73  57  56 NW10      30.04R
GEORGETOWN     SUNNY     75  62  64 N7        30.06R
EASTON         SUNNY     77  59  53 N7        30.11R
CAMBRIDGE      SUNNY     73  59  60 N8        30.07R
SALISBURY      SUNNY     75  64  68 N6        30.05R
OCEAN CITY     SUNNY     76  65  68 N8        30.04R
WALLOPS ISLAND SUNNY     75  64  68 NE8       30.04S
ACCOMACK*      SUNNY     75  66  72 NE7       30.05R
$$

NCZ012>017-030>032-231500-
NORTH CENTRAL AND EASTERN NORTH CAROLINA

CITY           SKY/WX    TMP DP  RH WIND       PRES   REMARKS
ROANOKE RAPIDS FAIR      72  68  88 CALM      30.07S
RALEIGH        MOSUNNY   76  68  76 N5        30.08S
ELIZABETH CITY SUNNY     78  69  73 N6        30.05R
AHOSKIE*       SUNNY     71  68  92 N3        30.07R
EDENTON*       SUNNY     76  69  78 CALM      30.06S
CURRITUCK*     SUNNY     73  68  84 N3        30.06R
KILL DEVIL HLS SUNNY     74  66  75 CALM      30.04R
MANTEO         SUNNY     75  67  76 N8        30.05S
CAPE HATTERAS  PTSUNNY   80  70  71 CALM      30.04R
TARBORO*       NOT AVBL
GOLDSBORO      MOSUNNY   77  73  87 NE5       30.05R
WASHINGTON     SUNNY     74  69  81 N6        30.06S
GREENVILLE     SUNNY     72  70  94 N6        30.08R
NEW BERN       MOSUNNY   76  70  82 N6        30.06R
WILMINGTON     MOSUNNY   79  71  76 CALM      30.04S
$$

VAZ048-231500-
ELSEWHERE

CITY           SKY/WX    TMP DP  RH WIND       PRES   REMARKS
HARRISBURG PA  MOSUNNY   72  59  63 NW9       30.12R
BALTIMORE      MOSUNNY   71  60  68 NW5       30.09R
ANNAPOLIS      MOSUNNY   76  63  64 NW7       30.08R
ANDREWS AFB    SUNNY     75  57  53 N7        30.09R
PHILADELPHIA   MOSUNNY   78  55  44 N12       30.07R
HENDERSON NC   SUNNY     72  65  77 CALM      30.09S
GREENSBORO     MOSUNNY   76  68  76 NE3       30.10R
ROCKY MOUNT    SUNNY     77  68  73 N5        30.07R
$$

VAZ100-231500-
MARINE

STATION/POSITION TIME  TEMP    WIND        PRES    WAVE   SWELL
                       AIR SEA DIR/SP/G            HT/PER HT/PER
                 (UTC) (F)     (DEG/KT/KT) (MB)    (FT/S) (FT/S)
BRANDYWINE LGT   1336   73     360/ 11/ 13 1017.6R
CAPE MAY NJ      1336   75 73   20/  5/ 10 1016.4R
LEWES DE         1336   73 72   CALM  /  1 1017.1R
15NM E FENWICK I 1350   72 71  330/  8/  8 1016.9R   5/ 8   5/ 8
OCEAN-CITY-INLET 1336   72 73   10/  8/  9 1017.5R
WACHAPREAGUE VA  1336   75 74  360/  5/  7 1017.3R
THOMAS POINT MD  1400   73 75  350/  9/ 10   N/A
GOOSES REEF MD   1400   73 75  350/ 10/ 12 1019.1   11
COVE POINT MD    1336   72     350/ 10/ 12 1018.9R
SOLOMONS ISLAND  1336   71 76  320/  6/  8 1017.9R
BISHOPS HEAD MD  1336   73 75   10/  5/  8 1018.0R
PINEY POINT MD   1342          330/  7/  8   N/A
POTOMAC MD       1400   74 76   20/  8/ 10 1017.5
CAMBRIDGE MD     1336   75 76              1019.0R
LEWISETTA VA     1336   74 77   10/  5/  7 1018.0R
RAPPAHANNOCK LGT 1342           20/ 12/ 13 1018.1R
STINGRAY PT      1400   74 76   50/ 10/ 12 1018.2    1/ 2
YORK RVR RNG VA  1336   75      30/  6/  8 1018.0R
YORKTOWN VA      1342   73 76  320/  3/  4 1017.5R
JAMESTOWN VA     1400      78   30/  2/  4   N/A     0
DOMINION TERM VA 1342   77      CALM  /  5 1017.7R
KIPTOPEKE VA     1342      75   50/  6/  8   N/A
CHES BAY BRIDGE  1342   74 75   40/ 10/ 11 1017.1R
CAPE HENRY VA    1342   74      20/  9/ 11   N/A
WILLOUBY STN VA  1342   75      20/ 12/ 14 1017.4R
S CRANEY ISL VA  1342   75      20/  8/ 10 1017.2R
CAPE HENRY BUOY  1400      75                N/A     5/14   3/14
1ST LANDING BUOY 1400   75 75              1017.1    3/ 5
64NM E OF VA BCH 1350   71 69  350/  6/  8 1017.3R   9/14   8/14
DUCK PIER NC     1342   75 76  350/  7/  8 1017.0R
44100 DUCK FRF   1335      74                N/A     6/11   3/11
44056 DUCK FRF   1400      76                N/A     5/11   3/11
OREGON INLET NC  1342   76 78  310/  6/  8 1017.1S
HATTERAS NC      1342   76 78  130/  4/  5 1017.0R
DIAMOND SHLS NC  1350   76 76   50/  6/  8 1016.9R   8/12   8/12
CAPE LOOKOUT NC  1400   77     340/  5/  7 1016.9R
$$




USA.gov is the U.S. government's official web portal to all federal, state and local government web resources and services.